Weather History for KOXC - August, 2014

Change the Weather History Date:

Saturday, August 9, 2014

  Actual Average Record
Temperature  
Mean Temperature 66 °F -  
Max Temperature 78 °F 77 °F 98 °F (2001)
Min Temperature 55 °F 60 °F 51 °F (2002)
Cooling Degree Days 2    
Growing Degree Days 16 (Base 50)    
Moisture  
Dew Point 55 °F    
Average Humidity 67    
Maximum Humidity 88    
Minimum Humidity 44    
Precipitation  
Precipitation 0.00 in - - ()
Sea Level Pressure  
Sea Level Pressure 30.13 in    
Wind  
Wind Speed 4 mph (NNW)    
Max Wind Speed 10 mph    
Max Gust Speed -    
Visibility 10 miles    
Events      
Averages and records for this station are not official NWS values.
T = Trace of Precipitation, MM = Missing Value Source: NWS Daily Summary

Daily Weather History Graph

Daily Weather History Graph

Search for Another Location

Airport or City:

Trip Planner

Search our weather history database for the weather conditions in past years. The results will help you decide how hot, cold, wet, or windy it might be!

Date:

Astronomy

Aug. 09, 2014 Rise Set
Actual Time 5:55 AM EDT 8:00 PM EDT
Civil Twilight 5:24 AM EDT 8:30 PM EDT
Nautical Twilight 4:47 AM EDT 9:07 PM EDT
Astronomical Twilight 4:06 AM EDT 9:47 PM EDT
Moon 6:59 PM EDT (8/9) 4:32 AM EDT (8/9)
Length of Visible Light 15h 05m
Length of Day
14h 04m
Waxing Gibbous, 98% of the Moon is Illuminated
Aug 9
Waxing Gibbous
Aug 10
Full
Aug 17
Last Quarter
Aug 25
New
Sep 2
First Quarter

Hourly Weather History & Observations

Time (EDT) Temp. Dew Point Humidity Pressure Visibility Wind Dir Wind Speed Gust Speed Precip Events Conditions
12:15 AM 60.8 °F 51.8 °F 72% 30.11 in 10.0 mi North 4.6 mph - N/A   Clear
12:35 AM 60.8 °F 53.6 °F 77% 30.10 in 10.0 mi North 4.6 mph - N/A   Clear
1:15 AM 60.8 °F 51.8 °F 72% 30.10 in 10.0 mi North 5.8 mph - N/A   Clear
1:35 AM 60.8 °F 51.8 °F 72% 30.10 in 10.0 mi North 4.6 mph - N/A   Clear
1:55 AM 59.0 °F 51.8 °F 77% 30.10 in 10.0 mi Calm Calm - N/A   Clear
2:15 AM 57.2 °F 51.8 °F 82% 30.10 in 10.0 mi Calm Calm - N/A   Clear
2:35 AM 57.2 °F 51.8 °F 82% 30.10 in 10.0 mi Calm Calm - N/A   Clear
2:55 AM 57.2 °F 51.8 °F 82% 30.10 in 10.0 mi Calm Calm - N/A   Clear
3:15 AM 55.4 °F 50.0 °F 82% 30.10 in 10.0 mi North 4.6 mph - N/A   Clear
3:35 AM 57.2 °F 51.8 °F 82% 30.10 in 10.0 mi WNW 3.5 mph - N/A   Clear
3:55 AM 57.2 °F 51.8 °F 82% 30.11 in 10.0 mi Calm Calm - N/A   Clear
4:15 AM 57.2 °F 51.8 °F 82% 30.11 in 10.0 mi Calm Calm - N/A   Clear
4:35 AM 55.4 °F 51.8 °F 88% 30.11 in 10.0 mi North 4.6 mph - N/A   Clear
4:55 AM 55.4 °F 50.0 °F 82% 30.11 in 10.0 mi Calm Calm - N/A   Clear
5:15 AM 55.4 °F 51.8 °F 88% 30.12 in 10.0 mi Calm Calm - N/A   Clear
5:35 AM 55.4 °F 51.8 °F 88% 30.12 in 10.0 mi Calm Calm - N/A   Clear
5:52 AM 55.4 °F 50.0 °F 82% 30.13 in 10.0 mi Calm Calm - N/A   Clear
5:55 AM 55.4 °F 50.0 °F 82% 30.13 in 10.0 mi Calm Calm - N/A   Clear
6:15 AM 55.4 °F 50.0 °F 82% 30.14 in 10.0 mi North 3.5 mph - N/A   Clear
6:35 AM 57.2 °F 51.8 °F 82% 30.14 in 10.0 mi NNW 3.5 mph - N/A   Clear
6:55 AM 59.0 °F 53.6 °F 82% 30.14 in 10.0 mi Calm Calm - N/A   Clear
7:15 AM 60.8 °F 53.6 °F 77% 30.14 in 10.0 mi NNW 3.5 mph - N/A   Clear
7:35 AM 62.6 °F 55.4 °F 77% 30.15 in 10.0 mi NNW 3.5 mph - N/A   Clear
7:52 AM 64.4 °F 55.4 °F 73% 30.15 in 10.0 mi Calm Calm - N/A   Clear
7:55 AM 64.4 °F 55.4 °F 73% 30.15 in 10.0 mi NW 4.6 mph - N/A   Clear
8:15 AM 64.4 °F 55.4 °F 73% 30.15 in 10.0 mi NW 5.8 mph - N/A   Clear
8:35 AM 66.2 °F 57.2 °F 73% 30.15 in 10.0 mi NW 3.5 mph - N/A   Clear
8:52 AM 68.0 °F 55.4 °F 64% 30.15 in 10.0 mi Calm Calm - N/A   Clear
8:55 AM 68.0 °F 57.2 °F 68% 30.15 in 10.0 mi NW 5.8 mph - N/A   Clear
9:15 AM 69.8 °F 57.2 °F 64% 30.15 in 10.0 mi NNW 6.9 mph - N/A   Clear
9:35 AM 71.6 °F 57.2 °F 60% 30.15 in 10.0 mi NNW 6.9 mph - N/A   Clear
9:52 AM 71.6 °F 57.2 °F 60% 30.15 in 10.0 mi North 5.8 mph - N/A   Clear
9:55 AM 71.6 °F 57.2 °F 60% 30.15 in 10.0 mi NNW 5.8 mph - N/A   Clear
10:15 AM 73.4 °F 57.2 °F 57% 30.15 in 10.0 mi WNW 4.6 mph - N/A   Clear
10:35 AM 73.4 °F 57.2 °F 57% 30.15 in 10.0 mi NNW 8.1 mph - N/A   Clear
10:52 AM 75.2 °F 57.2 °F 53% 30.15 in 10.0 mi North 6.9 mph - N/A   Clear
10:55 AM 75.2 °F 59.0 °F 57% 30.15 in 10.0 mi WNW 3.5 mph - N/A   Clear
11:15 AM 75.2 °F 59.0 °F 57% 30.15 in 10.0 mi NNW 6.9 mph - N/A   Clear
11:35 AM 75.2 °F 57.2 °F 53% 30.15 in 10.0 mi NNW 9.2 mph - N/A   Partly Cloudy
11:52 AM 77.0 °F 57.2 °F 50% 30.15 in 10.0 mi NW 6.9 mph - N/A   Scattered Clouds
11:55 AM 77.0 °F 57.2 °F 50% 30.15 in 10.0 mi North 9.2 mph - N/A   Partly Cloudy
12:15 PM 78.8 °F 57.2 °F 47% 30.14 in 10.0 mi WNW 4.6 mph - N/A   Partly Cloudy
12:35 PM 77.0 °F 55.4 °F 47% 30.13 in 10.0 mi NW 6.9 mph - N/A   Mostly Cloudy
12:52 PM 78.8 °F 57.2 °F 47% 30.13 in 10.0 mi NNW 8.1 mph - N/A   Scattered Clouds
1:15 PM 78.8 °F 55.4 °F 44% 30.13 in 10.0 mi NNW 4.6 mph - N/A   Mostly Cloudy
1:35 PM 78.8 °F 55.4 °F 44% 30.13 in 10.0 mi NNW 9.2 mph - N/A   Mostly Cloudy
1:52 PM 78.8 °F 55.4 °F 44% 30.13 in 10.0 mi North 9.2 mph - N/A   Mostly Cloudy
1:55 PM 77.0 °F 55.4 °F 47% 30.13 in 10.0 mi North 9.2 mph - N/A   Mostly Cloudy
2:15 PM 78.8 °F 55.4 °F 44% 30.12 in 10.0 mi North 10.4 mph - N/A   Overcast
2:35 PM 78.8 °F 57.2 °F 47% 30.12 in 10.0 mi NNE 5.8 mph - N/A   Scattered Clouds
2:52 PM 78.8 °F 55.4 °F 44% 30.12 in 10.0 mi North 9.2 mph - N/A   Mostly Cloudy
2:55 PM 78.8 °F 55.4 °F 44% 30.12 in 10.0 mi North 8.1 mph - N/A   Partly Cloudy
3:45 PM 78.8 °F 57.2 °F 47% 30.12 in 10.0 mi North 9.2 mph - N/A   Mostly Cloudy
4:45 PM 78.8 °F 57.2 °F 47% 30.11 in 10.0 mi North 9.2 mph - N/A   Mostly Cloudy
6:45 PM 75.2 °F 60.8 °F 61% 30.12 in 10.0 mi Calm Calm - N/A   Scattered Clouds
8:45 PM 66.2 °F 59.0 °F 78% 30.13 in 10.0 mi Calm Calm - N/A   Clear
8:55 PM 66.2 °F 57.2 °F 73% 30.13 in 10.0 mi North 4.6 mph - N/A   Clear
9:15 PM 66.2 °F 57.2 °F 73% 30.14 in 10.0 mi NNW 3.5 mph - N/A   Clear
9:55 PM 64.4 °F 55.4 °F 73% 30.14 in 10.0 mi North 5.8 mph - N/A   Clear
10:15 PM 64.4 °F 55.4 °F 73% 30.14 in 10.0 mi North 3.5 mph - N/A   Clear
10:35 PM 64.4 °F 55.4 °F 73% 30.14 in 10.0 mi North 3.5 mph - N/A   Clear
10:55 PM 62.6 °F 53.6 °F 72% 30.14 in 10.0 mi North 3.5 mph - N/A   Clear
11:35 PM 64.4 °F 55.4 °F 73% 30.15 in 10.0 mi North 5.8 mph - N/A   Clear
11:55 PM 64.4 °F 53.6 °F 68% 30.15 in 10.0 mi North 5.8 mph - N/A   Clear